Weather History for Crossville, TN

Change the Weather History Date:

Wednesday, February 20, 2013

  Actual Average Record
Temperature  
Mean Temperature 27 °F 40 °F  
Max Temperature 34 °F 50 °F 74 °F (1986)
Min Temperature 20 °F 31 °F 7 °F (1960)
Degree Days  
Heating Degree Days 38    
Month to date heating degree days 550  
Since 1 July heating degree days 2940  
Cooling Degree Days 0    
Month to date cooling degree days 0  
Year to date cooling degree days 0  
Moisture  
Dew Point 13 °F    
Average Humidity 54    
Maximum Humidity 73    
Minimum Humidity 35    
Precipitation  
Precipitation 0.00 in 0.16 in 1.22 in (2005)
Month to date precipitation 1.56 3.18  
Year to date precipitation 8.69 7.94  
Sea Level Pressure  
Sea Level Pressure 30.22 in    
Wind  
Wind Speed 6 mph (NNW)    
Max Wind Speed 12 mph    
Max Gust Speed 15 mph    
Visibility 10 miles    
Events      
T = Trace of Precipitation, MM = Missing Value Source: NWS Daily Summary

Daily Weather History Graph

Daily Weather History Graph

Search for Another Location

Airport:

Trip Planner

Search our weather history database for the weather conditions in past years. The results will help you decide how hot, cold, wet, or windy it might be!

Date:

Astronomy

Feb. 20, 2013 Rise Set
Actual Time 6:21 AM CST 5:27 PM CST
Civil Twilight 5:55 AM CST 5:53 PM CST
Nautical Twilight 5:25 AM CST 6:22 PM CST
Astronomical Twilight 4:56 AM CST 6:52 PM CST
Moon 12:53 PM CST (2/20) 2:35 AM CST (2/20)
Length of Visible Light 11h 57m
Length of Day
11h 05m
Waxing Gibbous, 76% of the Moon is Illuminated
Feb 20
Waxing Gibbous
Feb 25
Full
Mar 4
Last Quarter
Mar 11
New
Mar 19
First Quarter

Hourly Weather History & Observations

Time (CST) Temp. Windchill Dew Point Humidity Pressure Visibility Wind Dir Wind Speed Gust Speed Precip Events Conditions
12:53 AM 30.0 °F 25.2 °F 15.1 °F 54% 30.18 in 10.0 mi West 4.6 mph - N/A   Clear
1:53 AM 28.9 °F 21.9 °F 15.1 °F 56% 30.19 in 10.0 mi WNW 6.9 mph - N/A   Clear
2:53 AM 28.0 °F 20.8 °F 15.1 °F 58% 30.18 in 10.0 mi NW 6.9 mph - N/A   Clear
3:53 AM 26.1 °F 16.2 °F 14.0 °F 60% 30.19 in 10.0 mi NNW 10.4 mph - N/A   Clear
4:53 AM 24.1 °F 14.4 °F 14.0 °F 65% 30.21 in 10.0 mi NNW 9.2 mph - N/A   Clear
5:53 AM 21.9 °F 14.5 °F 12.9 °F 68% 30.21 in 10.0 mi North 5.8 mph - N/A   Clear
7:53 AM 23.0 °F 14.7 °F 12.9 °F 65% 30.25 in 10.0 mi North 6.9 mph - N/A   Clear
8:53 AM 25.0 °F 19.3 °F 12.9 °F 60% 30.26 in 10.0 mi NNW 4.6 mph - N/A   Clear
9:53 AM 28.0 °F 24.2 °F 12.0 °F 51% 30.26 in 10.0 mi WNW 3.5 mph - N/A   Clear
10:53 AM 32.0 °F 25.6 °F 12.0 °F 44% 30.27 in 10.0 mi NNW 6.9 mph - N/A   Clear
11:53 AM 32.0 °F 24.2 °F 10.0 °F 40% 30.24 in 10.0 mi North 9.2 mph - N/A   Clear
12:53 PM 33.1 °F 25.5 °F 10.0 °F 38% 30.22 in 10.0 mi NW 9.2 mph - N/A   Clear
1:53 PM 33.1 °F 27.7 °F 9.0 °F 37% 30.22 in 10.0 mi NNW 5.8 mph - N/A   Clear
4:53 PM 30.9 °F 24.3 °F 12.0 °F 46% 30.23 in 10.0 mi North 6.9 mph - N/A   Clear
5:53 PM 28.9 °F 25.2 °F 12.9 °F 51% 30.24 in 10.0 mi North 3.5 mph - N/A   Clear
6:53 PM 28.0 °F 24.2 °F 12.9 °F 53% 30.25 in 10.0 mi North 3.5 mph - N/A   Clear
7:53 PM 27.0 °F 21.6 °F 14.0 °F 58% 30.22 in 10.0 mi NE 4.6 mph - N/A   Clear
8:53 PM 26.1 °F 20.5 °F 12.9 °F 58% 30.23 in 10.0 mi NNE 4.6 mph - N/A   Clear
9:53 PM 25.0 °F 19.3 °F 12.9 °F 60% 30.23 in 10.0 mi NNE 4.6 mph - N/A   Clear
10:53 PM 24.1 °F - 12.9 °F 62% 30.21 in 10.0 mi Calm Calm - N/A   Clear
11:53 PM 25.0 °F 18.1 °F 14.0 °F 63% 30.21 in 10.0 mi NE 5.8 mph - N/A   Clear